FW3276 Weather Reports


Display with metric or nautical units.
time (UTC)temp
F
wind
direction
speed
MPH
gust
MPH
rain 1hr
in
rain 24hr
in
rain mn
in
humidity
%
barometer
mb
20260831233017 69 252 0.0 1.0 0.00 0.00 0.00 55 1017.1
20260831231516 69 252 0.0 2.0 0.00 0.00 0.00 56 1017.2
20260831230019 69 252 0.0 2.0 0.00 0.00 0.00 56 1017.3
20260831224513 69 252 0.0 3.0 0.00 0.00 0.00 55 1017.4
20260831223013 69 252 1.0 4.0 0.00 0.00 0.00 55 1017.5
20260831221512 69 229 1.0 4.0 0.00 0.00 0.00 55 1017.6
20260831220010 70 229 0.0 3.0 0.00 0.00 0.00 56 1017.7
20260831214519 70 229 0.0 0.0 0.00 0.00 0.00 56 1017.7
20260831213010 69 229 0.0 1.0 0.00 0.00 0.00 56 1017.6
20260831211515 69 229 0.0 4.0 0.00 0.00 0.00 56 1017.8
20260831210007 70 229 0.0 4.0 0.00 0.00 0.00 56 1017.9
20260831204512 70 240 0.0 3.0 0.00 0.00 0.00 55 1018.0
20260831203007 70 240 0.0 0.0 0.00 0.00 0.00 56 1017.9
20260831201505 70 240 0.0 0.0 0.00 0.00 0.00 55 1018.1
20260831200007 70 240 0.0 1.0 0.00 0.00 0.00 57 1017.9
20260831194504 70 240 0.0 2.0 0.00 0.00 0.00 57 1018.1
20260831193004 70 240 0.0 3.0 0.00 0.00 0.00 57 1018.4
20260831191601 71 240 0.0 3.0 0.00 0.00 0.00 56 1018.6
20260831184559 71 211 0.0 3.0 0.00 0.00 0.00 54 1018.9
20260831183102 71 252 0.0 4.0 0.00 0.00 0.00 55 1019.0
20260831181557 71 224 0.0 2.0 0.00 0.00 0.00 56 1018.9
20260831180056 70 224 0.0 1.0 0.00 0.00 0.00 57 1019.2
20260831174555 69 224 0.0 0.0 0.00 0.00 0.00 56 1019.2
20260831173056 70 224 0.0 2.0 0.00 0.00 0.00 55 1019.2
20260831171554 70 224 0.0 2.0 0.00 0.00 0.00 53 1019.3
20260831170057 70 224 1.0 3.0 0.00 0.00 0.00 51 1019.3
20260831164552 70 221 0.0 2.0 0.00 0.00 0.00 53 1019.1
20260831163050 69 256 0.0 4.0 0.00 0.00 0.00 52 1019.4
20260831161547 69 338 1.0 2.0 0.00 0.00 0.00 53 1019.4
20260831160054 68 327 1.0 3.0 0.00 0.00 0.00 53 1019.5
20260831154552 68 327 0.0 2.0 0.00 0.00 0.00 54 1019.5
20260831153046 68 327 0.0 4.0 0.00 0.00 0.00 54 1019.5
20260831151540 67 344 0.0 2.0 0.00 0.00 0.00 55 1019.4
20260831150044 67 344 1.0 3.0 0.00 0.00 0.00 54 1019.7
20260831144539 67 28 0.0 2.0 0.00 0.00 0.00 55 1019.6
20260831143040 67 28 0.0 2.0 0.00 0.00 0.00 55 1019.5
20260831141538 67 28 0.0 1.0 0.00 0.00 0.00 55 1019.6
20260831140043 67 28 0.0 0.0 0.00 0.00 0.00 56 1019.6
20260831134534 67 28 0.0 2.0 0.00 0.00 0.00 54 1019.6
20260831133033 66 28 0.0 1.0 0.00 0.00 0.00 55 1019.5
20260831131532 66 28 0.0 3.0 0.00 0.00 0.00 55 1019.4
20260831130031 66 355 0.0 2.0 0.00 0.00 0.00 55 1019.5
20260831124530 65 343 0.0 0.0 0.00 0.00 0.00 59 1019.4
20260831123028 65 342 0.0 0.0 0.00 0.00 0.00 60 1019.4
20260831121528 64 342 0.0 0.0 0.00 0.00 0.00 61 1019.3
20260831120027 64 342 0.0 0.0 0.00 0.00 0.00 61 1019.4
20260831114543 64 342 0.0 2.0 0.00 0.00 0.00 61 1019.3
20260831113023 63 342 0.0 0.0 0.00 0.00 0.00 62 1019.4
20260831111520 63 342 0.0 1.0 0.00 0.00 0.00 61 1019.4
20260831110016 63 342 0.0 0.0 0.00 0.00 0.00 61 1019.2
20260831104526 63 342 0.0 0.0 0.00 0.00 0.00 61 1018.9
20260831103015 63 342 0.0 0.0 0.00 0.00 0.00 61 1018.8
20260831101517 63 342 0.0 1.0 0.00 0.00 0.00 61 1018.6
20260831100014 63 342 0.0 1.0 0.00 0.00 0.00 61 1018.6
20260831094513 63 342 0.0 0.0 0.00 0.00 0.00 61 1018.7
20260831093012 63 342 0.0 0.0 0.00 0.00 0.00 60 1018.7
20260831091521 63 342 0.0 0.0 0.00 0.00 0.00 60 1018.7
20260831090017 63 342 0.0 0.0 0.00 0.00 0.00 60 1018.5
20260831084515 64 342 0.0 0.0 0.00 0.00 0.00 59 1018.6
20260831083008 64 342 0.0 0.0 0.00 0.00 0.00 59 1018.5
20260831081507 64 342 0.0 2.0 0.00 0.00 0.00 58 1018.5
20260831080005 64 342 0.0 0.0 0.00 0.00 0.00 57 1018.7
20260831074505 64 342 0.0 0.0 0.00 0.00 0.00 57 1018.5
20260831073004 65 342 0.0 0.0 0.00 0.00 0.00 57 1018.6
20260831071500 65 342 0.0 0.0 0.00 0.00 0.00 57 1018.6
20260831070101 65 342 0.0 0.0 0.00 0.00 0.00 57 1018.7
20260831064608 65 342 0.0 2.0 0.00 0.00 0.00 57 1018.7
20260831063057 65 342 0.0 0.0 0.00 0.00 0.00 55 1018.8
20260831061557 65 342 0.0 0.0 0.00 0.00 0.00 54 1018.9
20260831060057 66 342 0.0 0.0 0.00 0.00 0.00 54 1018.8
20260831054603 66 342 0.0 2.0 0.00 0.00 0.00 53 1019.0
20260831053053 66 342 0.0 3.0 0.00 0.00 0.00 54 1019.0
20260831051553 66 344 0.0 2.0 0.00 0.00 0.00 54 1019.0
20260831050055 66 344 0.0 3.0 0.00 0.00 0.00 53 1018.8
20260831044609 67 344 0.0 0.0 0.00 0.00 0.00 53 1019.0
20260831043049 67 344 0.0 0.0 0.00 0.00 0.00 54 1018.9
20260831041608 67 344 0.0 0.0 0.00 0.00 0.00 54 1018.9
20260831040047 67 344 0.0 0.0 0.00 0.00 0.00 54 1019.0
20260831034546 67 344 0.0 0.0 0.00 0.00 0.00 54 1019.0
20260831033046 67 343 0.0 0.0 0.00 0.00 0.00 53 1019.3
20260831031545 67 344 0.0 0.0 0.00 0.00 0.00 53 1019.4
20260831030050 67 344 0.0 2.0 0.00 0.00 0.00 52 1019.5
20260831024545 67 344 0.0 2.0 0.00 0.00 0.00 52 1019.4
20260831023044 68 344 0.0 0.0 0.00 0.00 0.00 52 1019.4
20260831021543 68 344 0.0 0.0 0.00 0.00 0.00 53 1019.6
20260831020043 68 344 0.0 0.0 0.00 0.00 0.00 53 1019.7
20260831014542 68 344 0.0 0.0 0.00 0.00 0.00 54 1019.4
20260831013042 69 344 0.0 0.0 0.00 0.00 0.00 55 1019.5
20260831011546 69 344 0.0 0.0 0.00 0.00 0.00 56 1019.3
20260831010041 69 344 0.0 0.0 0.00 0.00 0.00 58 1019.1
20260831004541 70 344 0.0 1.0 0.00 0.00 0.00 60 1018.7
20260831003042 70 344 0.0 4.0 0.00 0.00 0.00 60 1018.8
20260831001539 71 344 0.0 2.0 0.00 0.00 0.00 61 1018.6
20260831000039 71 344 0.0 0.0 0.00 0.00 0.00 60 1018.3
20260830234544 71 344 0.0 0.0 0.00 0.00 0.00 60 1018.2